Location: Tel Aviv
(32.0670°N, 34.7670°E)
Time: 19:42:32
(UTC+03:00)

Vanguard 2 Rocket - Pass Details

Date: 24 January 2022
Orbit: 553 x 3323 km, 32.9° (Epoch: 24 May)

Event Time Altitude Azimuth Distance (km) Brightness Sun altitude
Exits shadow 04:17:57 42° 273° (W) 4,033 9.6 -29.8°
Maximum altitude 04:27:39 87° 2° (N) 3,326 9.5 -27.8°
Drops below altitude 10° 04:47:06 10° 94° (E) 5,727 12.0 -23.7°
Sets 04:50:58 0° 94° (E) 6,489 12.7 -22.9°
